Tracking 28790 objects as of 19-Apr-2024
HD Live streaming from Space Station
objects crossing your sky now

DELTA 1 DEB

Track DELTA 1 DEB now!
10-day predictions


NORAD ID: 10227
Int'l Code: 1977-065BE
Perigee: 568.8 km
Apogee: 1,606.3 km
Inclination: 29.0 °
Period: 106.8 minutes
Semi major axis: 7458 km
RCS: 0.265 m2 (medium)
Launch date: July 14, 1977
Source: United States (US)
Launch site: AIR FORCE EASTERN TEST RANGE (AFETR)

Note: This is SATELLITE DEBRIS
Your satellite tracking list
Your tracking list is empty




NASA's NSSDC Master Catalog

Two Line Element Set (TLE):
1 10227U 77065BE  24109.20960450  .00002568  00000-0  85566-3 0  9993
2 10227  28.9523  54.2323 0695471 178.5099 181.7714 13.47785103267770
Source of the keplerian elements: AFSPC